Regional Weather Roundup
Issued by NWS Cleveland, OH

Home | Current Version | Previous Version | Text Only | Print | Product List | Glossary Off
Versions: 1 2 3 4 5 6 7 8 9 10 11 12 13 14 15 16 17 18 19 20 21 22 23 24 25 26 27 28 29 30 31 32 33 34 35 36 37 38 39 40 41 42 43 44 45 46 47 48 49 50

000
ASUS41 KCLE 210810
RWRCLE
OHIO REGIONAL WEATHER ROUNDUP
NATIONAL WEATHER SERVICE WILMINGTON, OH
300 AM EST TUE FEB 21 2017

NOTE: "FAIR" INDICATES FEW OR NO CLOUDS BELOW 12,000 FEET WITH NO
SIGNIFICANT WEATHER AND/OR OBSTRUCTIONS TO VISIBILITY.

OHZ001>008-015>018-024>027-034-035-043-044-210900-
   NORTHWEST OHIO

CITY           SKY/WX    TMP DP  RH WIND       PRES   REMARKS
DEFIANCE       FAIR      38  33  82 E3        30.01F
FINDLAY        FAIR      48  37  65 S9        30.02F
TOLEDO EXPRESS FAIR      36  33  89 E3        30.02F
TOLEDO EXEC    FAIR      37  35  92 CALM      30.04F
LIMA           FAIR      50  41  71 S12       30.02F
$$

OHZ009>014-019>023-028>033-038-089-210900-
   NORTHEAST OHIO

CITY           SKY/WX    TMP DP  RH WIND       PRES   REMARKS
CLE-HOPKINS    CLOUDY    51  30  44 SE9       30.08F
CLE-LAKEFRONT  FAIR      50  31  48 SE8       30.05F
CUY CO. ARPT   NOT AVBL
LORAIN-ELYRIA  FAIR      46  33  60 S8        30.05F
ASHTABULA      FAIR      44  31  60 SE8       30.10F
AKRON-CANTON   CLOUDY    49  31  49 SE9       30.08F
WOOSTER        FAIR      44  36  73 SE3       30.07F
MANSFIELD      FAIR      49  36  61 S10       30.06R
YOUNGSTOWN     CLOUDY    47  30  51 E12       30.09F
$$

OHZ042-051>053-060>062-070>072-077>081-210900-
  SOUTHWEST OHIO

CITY           SKY/WX    TMP DP  RH WIND       PRES   REMARKS
CINC-COVINGTON CLOUDY    53  40  61 SE6       30.02F
CINC-LUNKEN    FAIR      43  42  97 CALM      30.05S
HAMILTON       FAIR      44  40  85 CALM      30.05S
DAYTON         CLOUDY    47  40  76 S6        30.04F
WRIGHT-PAT AFB CLOUDY    43  43 100 CALM      30.03F
DAYTON GENERAL FAIR      52  40  63 SE7       30.02F
WILMINGTON     FAIR      47  40  76 SE6       30.04S
$$

OHZ036-037-039>041-045>050-054>059-063>069-073>076-082>088-210900-
  CENTRAL AND SOUTHEAST OHIO

CITY           SKY/WX    TMP DP  RH WIND       PRES   REMARKS
COLUMBUS       CLOUDY    52  38  58 SE3       30.05F
OSU AIRPORT    FAIR      49  39  68 SE7       30.05F
BOLTON FIELD   FAIR      45  40  84 CALM      30.05F
RICKENBACK AFB FAIR      44  41  88 CALM      30.05F
NEWARK         FAIR      41  37  86 CALM      30.06F
MARION         FAIR      48  37  65 SE13      30.04F
LANCASTER      FAIR      41  39  93 CALM      30.06F
ZANESVILLE     FAIR      43  37  79 CALM      30.06F
NEW PHILLY     FAIR      41  37  86 SE3       30.08F
$$




USA.gov is the U.S. government's official web portal to all federal, state and local government web resources and services.